Location: Killam
(52.7910°N, 111.8608°W)
Time: 18:11:59
(UTC+00:00)

Envisat - Visible Passes

Search period start: 29 May 2023 00:00
Search period end: 08 June 2023 00:00
Orbit: 763 x 765 km, 98.2° (Epoch: 29 May)

Date Brightness Start Highest point End Pass type
(mag) Time Alt. Az. Time Alt. Az. Time Alt. Az.
30 May 5.6 10:00:14 10° NE 10:03:11 15° E 10:06:07 10° ESE visible
02 Jun 5.7 09:48:34 10° ENE 09:50:34 12° E 09:52:32 10° ESE visible
04 Jun 5.5 10:12:02 10° NE 10:15:39 19° E 10:19:16 10° SE visible
07 Jun 5.6 10:00:03 10° NE 10:03:03 16° E 10:06:02 10° ESE visible
